"startDT [UTC]","vpos","CH4 [ppm]","stdev(CH4) [ppm]","CO2 [ppm]","stdev(CO2) [ppm]","H2O_reported [%]","stdev(H2O_reported)","CavityPressure [torr]","CavityTemp [C]","OutletValve","CH4_dry [ppm]","CO2_dry [ppm]","DasTemp [C]","EtalonTemp [C]","WarmBoxTemp [C]","MPVPosition","T_ECpre [C]","T_EC1 [C]","T_EC2 [C]","p_inlet [hPa]","p_in [hPa]","p_out [hPa]","T_inlet [C]","RH_inlet [%]","dwpt_inlet [C]","T_vent [C]","RH_vent [%]","dwpt_vent [C]","flow_vent [l min-1]","flow_inlet [l min-1]","dwpt_sample [C]","T_room [C]"
2015-05-28 00:00:00,3.0,1.87717,0.01143,399.246,2.164,0.1699,0.2420,139.773,45.000,31226.04791,1.88263,400.378,33.128,45.068,45.000,0.00,0.09,-272.72,-272.78,-6,471,-5,23.7,17.0,-2.8,23.3,17.5,-2.7,5.73,1.85,-5.6,27.5
2015-05-28 00:01:00,3.0,1.87542,0.00034,397.189,0.038,0.0279,0.0015,139.998,45.000,30919.58968,1.87593,397.328,33.126,45.068,45.000,0.00,0.09,-272.72,-272.79,-6,471,-5,23.6,17.1,-2.8,23.3,17.6,-2.7,5.73,1.90,-5.7,27.6
2015-05-28 00:02:00,3.0,1.87544,0.00036,397.258,0.061,0.0252,0.0021,139.995,45.000,30864.75587,1.87590,397.374,33.125,45.068,45.000,0.00,0.09,-272.72,-272.78,-6,472,-5,23.7,17.2,-2.7,23.3,17.6,-2.6,5.73,1.90,-5.6,27.5
2015-05-28 00:03:00,3.0,1.87548,0.00027,397.421,0.040,0.0210,0.0015,139.998,45.000,30821.76674,1.87587,397.519,33.125,45.068,45.000,0.00,0.09,-272.71,-272.77,-6,472,-5,23.7,17.2,-2.7,23.4,17.7,-2.5,5.73,1.90,-5.6,27.5
2015-05-28 00:04:00,3.0,1.87562,0.00051,397.498,0.028,0.0173,0.0015,139.996,45.000,30783.34200,1.87594,397.580,33.125,45.068,45.000,0.00,0.09,-272.72,-272.78,-6,472,-5,23.7,17.3,-2.6,23.4,17.7,-2.5,5.73,1.90,-5.6,27.5
2015-05-28 00:05:00,3.0,1.87553,0.00032,397.519,0.039,0.0129,0.0013,139.994,45.000,30753.34947,1.87578,397.581,33.125,45.068,45.000,0.00,0.09,-272.72,-272.78,-6,472,-5,23.7,17.3,-2.6,23.4,17.8,-2.5,5.73,1.90,-5.6,27.5
2015-05-28 00:06:00,3.0,1.87587,0.00026,397.542,0.043,0.0109,0.0020,139.999,45.000,30727.69342,1.87604,397.592,33.124,45.068,45.000,0.00,0.09,-272.72,-272.77,-6,472,-5,23.6,17.3,-2.6,23.4,17.8,-2.4,5.73,1.91,-5.6,27.5
2015-05-28 00:07:00,3.0,1.87552,0.00036,397.545,0.029,0.0070,0.0018,139.999,45.000,30709.58374,1.87564,397.579,33.116,45.068,45.000,0.00,0.09,-272.72,-272.78,-6,473,-5,23.7,17.2,-2.7,23.4,17.7,-2.5,5.73,1.90,-5.6,27.6
2015-05-28 00:08:00,3.0,1.87586,0.00035,397.567,0.040,0.0069,0.0018,139.996,45.000,30690.44097,1.87600,397.600,33.111,45.068,45.000,0.00,0.09,-272.72,-272.78,-6,473,-5,23.7,17.0,-2.8,23.4,17.6,-2.6,5.73,1.90,-5.6,27.5
2015-05-28 00:09:00,3.0,1.87591,0.00036,397.601,0.037,0.0067,0.0025,139.999,45.000,30676.88361,1.87604,397.631,33.111,45.068,45.000,0.00,0.09,-272.71,-272.78,-6,473,-5,23.7,16.8,-2.9,23.4,17.4,-2.8,5.73,1.90,-5.6,27.5
2015-05-28 00:10:00,3.0,1.87577,0.00028,397.586,0.024,0.0059,0.0025,139.997,45.000,30665.27324,1.87588,397.618,33.117,45.068,45.000,0.00,0.09,-272.71,-272.78,-6,473,-5,23.7,16.8,-3.0,23.4,17.3,-2.8,5.73,1.90,-5.6,27.5
2015-05-28 00:11:00,3.0,1.87605,0.00029,397.606,0.036,0.0049,0.0014,140.001,45.000,30657.06499,1.87610,397.628,33.124,45.068,45.000,0.00,0.09,-272.72,-272.78,-6,473,-5,23.7,16.8,-2.9,23.4,17.4,-2.8,5.73,1.90,-5.6,27.5
2015-05-28 00:12:00,3.0,1.87597,0.00048,397.594,0.021,0.0036,0.0019,139.998,45.000,30648.51326,1.87606,397.610,33.125,45.068,45.000,0.00,0.10,-272.72,-272.77,-6,474,-5,23.7,16.9,-2.9,23.4,17.3,-2.7,5.73,1.91,-5.6,27.5
2015-05-28 00:13:00,3.0,1.87614,0.00041,397.605,0.028,0.0038,0.0017,139.996,45.000,30643.25371,1.87622,397.624,33.124,45.068,45.000,0.00,0.10,-272.72,-272.78,-6,474,-5,23.7,16.8,-2.9,23.5,17.3,-2.8,5.73,1.90,-5.6,27.6
2015-05-28 00:14:00,3.0,1.87599,0.00036,397.558,0.028,0.0033,0.0025,139.999,45.000,30639.46509,1.87606,397.572,33.124,45.068,45.000,0.00,0.09,-272.72,-272.78,-6,474,-5,23.7,16.8,-2.9,23.4,17.3,-2.8,5.73,1.91,-5.6,27.6
2015-05-28 00:15:00,3.0,1.87605,0.00041,397.568,0.037,0.0029,0.0024,140.003,45.000,30636.94448,1.87610,397.583,33.125,45.068,45.000,0.00,0.10,-272.72,-272.78,-6,474,-5,23.7,16.9,-2.9,23.5,17.4,-2.7,5.73,1.90,-5.6,27.5
2015-05-28 00:16:00,3.0,1.87573,0.00031,397.562,0.030,0.0036,0.0021,140.001,45.000,30632.84973,1.87575,397.578,33.125,45.068,45.000,0.00,0.10,-272.71,-272.77,-6,475,-5,23.7,16.9,-2.9,23.5,17.4,-2.7,5.73,1.90,-5.6,27.5
2015-05-28 00:17:00,3.0,1.87583,0.00047,397.589,0.024,0.0028,0.0018,139.995,45.000,30626.51394,1.87590,397.602,33.125,45.068,45.000,0.00,0.09,-272.72,-272.78,-6,475,-5,23.7,17.0,-2.8,23.5,17.5,-2.6,5.73,1.91,-5.6,27.6
2015-05-28 00:18:00,3.0,1.87592,0.00031,397.572,0.032,0.0033,0.0018,140.000,45.000,30627.31254,1.87599,397.588,33.135,45.068,45.000,0.00,0.09,-272.72,-272.78,-6,475,-5,23.8,17.0,-2.7,23.5,17.5,-2.6,5.73,1.90,-5.6,27.6
2015-05-28 00:19:00,3.0,1.87566,0.00031,397.589,0.028,0.0019,0.0012,140.002,45.000,30628.75963,1.87569,397.598,33.126,45.068,45.000,0.00,0.10,-272.72,-272.77,-6,475,-5,23.7,16.9,-2.8,23.5,17.4,-2.7,5.73,1.90,-5.6,27.5
2015-05-28 00:20:00,0.0,1.90446,0.00744,402.828,1.634,0.5552,0.2033,140.164,45.000,33774.01972,1.91279,405.263,33.125,45.068,45.000,0.00,0.09,-272.72,-272.78,-7,981,-5,23.7,17.0,-2.8,23.5,17.5,-2.6,5.73,1.89,-5.6,27.6
2015-05-28 00:21:00,0.0,1.90563,0.00039,402.939,0.192,0.6495,0.0029,140.002,45.000,33910.80215,1.91804,406.151,33.132,45.068,45.000,0.00,0.09,-272.72,-272.78,-6,983,-5,23.8,17.0,-2.8,23.5,17.5,-2.6,5.73,1.94,-5.6,27.5
2015-05-28 00:22:00,0.0,1.90518,0.00035,402.824,0.101,0.6488,0.0026,140.001,45.000,33972.47844,1.91762,406.044,33.139,45.068,45.000,0.00,0.09,-272.72,-272.78,-6,982,-5,23.7,16.9,-2.9,23.5,17.4,-2.7,5.73,1.95,-5.6,27.6
2015-05-28 00:23:00,0.0,1.90489,0.00031,403.131,0.137,0.6494,0.0021,139.999,45.000,34019.19385,1.91734,406.339,33.143,45.068,45.000,0.00,0.10,-272.71,-272.78,-7,983,-5,23.8,16.8,-2.9,23.5,17.3,-2.7,5.73,1.94,-5.6,27.7
2015-05-28 00:24:00,0.0,1.90481,0.00020,402.887,0.067,0.6499,0.0028,140.002,45.000,34058.03129,1.91726,406.101,33.150,45.068,45.000,0.00,0.09,-272.72,-272.78,-6,983,-5,23.8,16.8,-2.9,23.5,17.3,-2.7,5.73,1.94,-5.6,27.7
2015-05-28 00:25:00,0.0,1.90442,0.00037,402.843,0.117,0.6555,0.0017,140.001,45.000,34093.33210,1.91698,406.080,33.142,45.068,45.000,0.00,0.09,-272.71,-272.78,-6,983,-5,23.8,16.9,-2.8,23.5,17.4,-2.7,5.73,1.93,-5.6,27.6
2015-05-28 00:26:00,0.0,1.90447,0.00036,402.955,0.136,0.6534,0.0017,139.999,45.000,34117.91252,1.91694,406.195,33.142,45.068,45.000,0.00,0.10,-272.71,-272.77,-6,983,-5,23.7,16.9,-2.9,23.5,17.4,-2.7,5.73,1.93,-5.5,27.7
2015-05-28 00:27:00,0.0,1.90495,0.00039,402.746,0.082,0.6516,0.0021,139.996,45.000,34137.22298,1.91736,405.962,33.151,45.068,45.000,0.00,0.09,-272.72,-272.78,-6,983,-5,23.8,16.8,-2.9,23.4,17.3,-2.8,5.73,1.92,-5.5,27.7
2015-05-28 00:28:00,0.0,1.90484,0.00046,402.944,0.130,0.6529,0.0016,139.999,45.000,34156.80885,1.91734,406.167,33.147,45.068,45.000,0.00,0.09,-272.72,-272.78,-6,983,-5,23.8,16.8,-2.9,23.5,17.3,-2.7,5.73,1.92,-5.6,27.7
2015-05-28 00:29:00,0.0,1.90487,0.00015,402.971,0.151,0.6505,0.0020,139.998,45.000,34171.62210,1.91735,406.187,33.140,45.068,45.000,0.00,0.10,-272.72,-272.78,-6,984,-5,23.8,16.8,-2.9,23.5,17.2,-2.8,5.73,1.92,-5.6,27.6
2015-05-28 00:30:00,0.0,1.90474,0.00029,403.023,0.221,0.6512,0.0018,140.000,45.000,34186.95322,1.91722,406.241,33.133,45.068,45.000,0.00,0.10,-272.72,-272.77,-7,983,-5,23.8,16.8,-2.9,23.5,17.2,-2.7,5.73,1.91,-5.5,27.7
2015-05-28 00:31:00,0.0,1.90477,0.00032,403.019,0.158,0.6537,0.0024,140.002,45.000,34199.85053,1.91722,406.253,33.148,45.068,45.000,0.00,0.09,-272.72,-272.78,-6,983,-5,23.8,16.8,-2.9,23.5,17.3,-2.7,5.73,1.92,-5.5,27.7
2015-05-28 00:32:00,0.0,1.90481,0.00033,403.069,0.123,0.6541,0.0021,139.999,45.000,34209.52109,1.91734,406.313,33.176,45.068,45.000,0.00,0.09,-272.72,-272.78,-7,983,-5,23.8,16.8,-2.9,23.5,17.3,-2.7,5.73,1.91,-5.5,27.6
2015-05-28 00:33:00,0.0,1.90460,0.00036,402.855,0.106,0.6537,0.0023,140.000,45.000,34219.47974,1.91710,406.086,33.181,45.068,45.000,0.00,0.10,-272.72,-272.77,-6,983,-5,23.8,16.8,-2.9,23.5,17.3,-2.7,5.73,1.91,-5.5,27.6
2015-05-28 00:34:00,0.0,1.90447,0.00033,402.831,0.057,0.6568,0.0013,139.999,45.000,34226.71493,1.91704,406.080,33.183,45.068,45.000,0.00,0.09,-272.72,-272.78,-7,983,-5,23.8,16.9,-2.8,23.6,17.3,-2.7,5.73,1.91,-5.5,27.6
2015-05-28 00:35:00,0.0,1.90451,0.00031,402.936,0.236,0.6592,0.0020,140.001,45.000,34231.54797,1.91714,406.180,33.172,45.068,45.000,0.00,0.09,-272.72,-272.78,-6,983,-5,23.8,17.0,-2.7,23.5,17.4,-2.6,5.73,1.93,-5.5,27.6
2015-05-28 00:36:00,0.0,1.90479,0.00029,403.028,0.251,0.6602,0.0024,140.002,45.000,34237.62927,1.91738,406.313,33.186,45.068,45.000,0.00,0.10,-272.71,-272.78,-6,984,-5,23.8,17.0,-2.7,23.5,17.5,-2.6,5.73,1.92,-5.5,27.7
2015-05-28 00:37:00,0.0,1.90439,0.00034,402.740,0.057,0.6634,0.0029,140.004,45.000,34242.98757,1.91710,406.018,33.185,45.068,45.000,0.00,0.09,-272.72,-272.78,-6,983,-5,23.7,17.1,-2.7,23.6,17.5,-2.5,5.73,1.94,-5.5,27.6
2015-05-28 00:38:00,0.0,1.90414,0.00037,402.742,0.072,0.6623,0.0015,139.998,45.000,34245.82086,1.91683,406.018,33.188,45.068,45.000,0.00,0.09,-272.72,-272.79,-7,984,-5,23.8,17.1,-2.7,23.5,17.5,-2.5,5.73,1.93,-5.5,27.7
2015-05-28 00:39:00,0.0,1.90418,0.00030,402.773,0.147,0.6622,0.0032,140.001,45.000,34250.49204,1.91684,406.047,33.188,45.068,45.000,0.00,0.10,-272.72,-272.78,-6,983,-5,23.8,17.0,-2.7,23.5,17.5,-2.5,5.73,1.95,-5.5,27.7
2015-05-28 00:40:00,0.0,1.90422,0.00036,402.711,0.041,0.6596,0.0013,139.998,45.000,34254.28295,1.91685,405.972,33.188,45.068,45.000,0.00,0.10,-272.72,-272.78,-6,984,-5,23.8,16.9,-2.8,23.5,17.4,-2.6,5.73,1.94,-5.5,27.7
2015-05-28 00:41:00,0.0,1.90441,0.00044,402.748,0.069,0.6544,0.0036,139.995,45.000,34253.16493,1.91690,405.981,33.190,45.068,45.000,0.00,0.09,-272.73,-272.78,-6,983,-5,23.8,16.9,-2.8,23.5,17.3,-2.7,5.73,1.95,-5.5,27.7
2015-05-28 00:42:00,0.0,1.90442,0.00026,403.129,0.197,0.6558,0.0026,139.997,45.000,34255.46718,1.91697,406.371,33.191,45.068,45.000,0.00,0.10,-272.72,-272.78,-7,984,-5,23.8,16.8,-2.8,23.5,17.3,-2.7,5.73,1.94,-5.5,27.7
2015-05-28 00:43:00,0.0,1.90406,0.00028,402.965,0.087,0.6577,0.0021,139.998,45.000,34258.50747,1.91667,406.218,33.200,45.068,45.000,0.00,0.10,-272.72,-272.78,-7,984,-5,23.8,16.9,-2.8,23.6,17.3,-2.7,5.73,1.94,-5.5,27.6
2015-05-28 00:44:00,0.0,1.90427,0.00028,403.137,0.178,0.6580,0.0010,139.999,45.000,34261.44361,1.91683,406.397,33.223,45.068,45.000,0.00,0.09,-272.72,-272.77,-6,984,-5,23.8,16.9,-2.8,23.6,17.4,-2.6,5.73,1.94,-5.5,27.6
2015-05-28 00:45:00,0.0,1.90426,0.00035,402.814,0.112,0.6579,0.0013,140.002,45.000,34262.80638,1.91686,406.061,33.247,45.068,45.000,0.00,0.09,-272.72,-272.78,-6,983,-5,23.8,16.9,-2.8,23.5,17.4,-2.7,5.73,1.94,-5.5,27.6
2015-05-28 00:46:00,0.0,1.90436,0.00033,402.785,0.075,0.6569,0.0014,140.001,45.000,34264.12289,1.91691,406.039,33.236,45.067,45.000,0.00,0.10,-272.71,-272.78,-6,984,-5,23.8,16.9,-2.8,23.6,17.3,-2.7,5.73,1.93,-5.5,27.7
2015-05-28 00:47:00,0.0,1.90435,0.00031,402.757,0.060,0.6562,0.0023,140.001,45.000,34264.19283,1.91693,406.000,33.231,45.068,45.000,0.00,0.09,-272.72,-272.77,-6,984,-5,23.8,16.8,-2.8,23.5,17.3,-2.7,5.73,1.92,-5.5,27.6
2015-05-28 00:48:00,0.0,1.90404,0.00037,403.109,0.223,0.6541,0.0031,140.005,45.000,34267.23458,1.91654,406.336,33.219,45.068,45.000,0.00,0.09,-272.72,-272.78,-6,984,-5,23.8,16.7,-2.9,23.6,17.2,-2.7,5.73,1.92,-5.5,27.7
2015-05-28 00:49:00,0.0,1.90405,0.00043,402.880,0.183,0.6543,0.0025,139.996,45.000,34264.44133,1.91656,406.128,33.219,45.068,45.000,0.00,0.09,-272.71,-272.78,-7,984,-5,23.8,16.7,-2.9,23.6,17.3,-2.7,5.73,1.91,-5.5,27.7
2015-05-28 00:50:00,0.0,1.90421,0.00025,403.284,0.393,0.6558,0.0025,140.001,45.000,34267.37575,1.91673,406.502,33.203,45.068,45.000,0.00,0.10,-272.72,-272.78,-6,984,-5,23.8,16.7,-2.9,23.6,17.3,-2.7,5.73,1.92,-5.5,27.7
2015-05-28 00:51:00,0.0,1.90413,0.00026,403.177,0.133,0.6541,0.0028,139.998,45.000,34269.27722,1.91664,406.429,33.191,45.068,45.000,0.00,0.09,-272.72,-272.79,-7,984,-5,23.8,16.7,-2.9,23.6,17.2,-2.7,5.73,1.91,-5.5,27.7
2015-05-28 00:52:00,0.0,1.90371,0.00048,403.110,0.168,0.6558,0.0016,140.001,45.000,34273.70763,1.91626,406.347,33.190,45.068,45.000,0.00,0.10,-272.71,-272.78,-6,984,-5,23.8,16.8,-2.9,23.6,17.3,-2.7,5.73,1.92,-5.5,27.6
2015-05-28 00:53:00,0.0,1.90390,0.00038,403.170,0.075,0.6566,0.0030,140.000,45.000,34271.58374,1.91645,406.424,33.195,45.068,45.000,0.00,0.10,-272.71,-272.78,-7,984,-5,23.9,16.8,-2.8,23.6,17.2,-2.7,5.73,1.91,-5.5,27.6
2015-05-28 00:54:00,0.0,1.90402,0.00045,403.180,0.139,0.6580,0.0018,139.997,45.000,34269.37688,1.91656,406.429,33.211,45.068,45.000,0.00,0.09,-272.72,-272.78,-6,984,-5,23.8,16.8,-2.8,23.6,17.3,-2.7,5.73,1.92,-5.5,27.7
2015-05-28 00:55:00,0.0,1.90429,0.00022,403.563,0.273,0.6575,0.0024,140.000,45.000,34270.79095,1.91689,406.829,33.213,45.068,45.000,0.00,0.10,-272.72,-272.78,-7,984,-5,23.8,16.9,-2.8,23.6,17.3,-2.7,5.73,1.91,-5.5,27.7
2015-05-28 00:56:00,0.0,1.90435,0.00035,403.085,0.154,0.6612,0.0025,139.996,45.000,34267.81090,1.91698,406.351,33.217,45.068,45.000,0.00,0.10,-272.72,-272.77,-6,984,-5,23.8,16.9,-2.7,23.6,17.3,-2.6,5.73,1.93,-5.5,27.7
2015-05-28 00:57:00,0.0,1.90432,0.00047,403.204,0.128,0.6552,0.0022,140.000,45.000,34271.95248,1.91685,406.442,33.198,45.068,45.000,0.00,0.10,-272.72,-272.77,-7,984,-5,23.9,16.7,-2.9,23.6,17.3,-2.7,5.73,1.93,-5.5,27.7
2015-05-28 00:58:00,0.0,1.90409,0.00034,403.272,0.358,0.6606,0.0019,140.000,45.000,34271.20941,1.91675,406.519,33.203,45.068,45.000,0.00,0.09,-272.73,-272.78,-6,983,-5,23.9,16.9,-2.7,23.6,17.4,-2.6,5.73,1.94,-5.5,27.7
2015-05-28 00:59:00,0.0,1.90407,0.00037,403.594,0.397,0.6637,0.0030,140.002,45.000,34271.67231,1.91676,406.917,33.212,45.068,45.000,0.00,0.10,-272.72,-272.77,-6,984,-5,23.9,16.9,-2.7,23.6,17.4,-2.6,5.73,1.94,-5.4,27.7
2015-05-28 01:00:00,0.0,1.90405,0.00030,402.902,0.148,0.6622,0.0020,140.002,45.000,34272.55343,1.91672,406.188,33.232,45.068,45.000,0.00,0.09,-272.71,-272.78,-6,984,-5,23.9,16.9,-2.8,23.6,17.4,-2.6,5.73,1.94,-5.5,27.7
2015-05-28 01:01:00,0.0,1.90388,0.00042,402.713,0.053,0.6601,0.0023,139.999,45.000,34274.00339,1.91649,405.974,33.225,45.068,45.000,0.00,0.09,-272.72,-272.78,-6,985,-5,23.9,16.9,-2.7,23.6,17.4,-2.6,5.73,1.94,-5.5,27.7
2015-05-28 01:02:00,0.0,1.90420,0.00037,402.750,0.063,0.6544,0.0021,139.999,45.000,34272.55816,1.91672,405.982,33.209,45.068,45.000,0.00,0.09,-272.72,-272.78,-7,984,-5,23.9,16.7,-2.9,23.6,17.2,-2.7,5.73,1.94,-5.4,27.7
2015-05-28 01:03:00,0.0,1.90444,0.00031,402.793,0.078,0.6548,0.0020,139.997,45.000,34271.85118,1.91695,406.035,33.198,45.068,45.000,0.00,0.10,-272.71,-272.77,-6,984,-5,23.8,16.7,-2.9,23.6,17.2,-2.7,5.73,1.94,-5.4,27.7
2015-05-28 01:04:00,0.0,1.90430,0.00020,402.667,0.031,0.6605,0.0020,140.004,45.000,34273.16452,1.91695,405.935,33.212,45.068,45.000,0.00,0.09,-272.72,-272.78,-7,984,-5,23.9,16.9,-2.8,23.6,17.3,-2.6,5.73,1.94,-5.4,27.7
2015-05-28 01:05:00,0.0,1.90400,0.00046,402.644,0.023,0.6656,0.0026,139.998,45.000,34273.21572,1.91671,405.936,33.226,45.068,45.000,0.00,0.10,-272.72,-272.79,-6,984,-5,23.9,17.0,-2.7,23.6,17.5,-2.5,5.73,1.94,-5.4,27.7
2015-05-28 01:06:00,0.0,1.90430,0.00033,402.616,0.045,0.6588,0.0039,140.000,45.000,34275.17730,1.91687,405.872,33.234,45.068,45.000,0.00,0.10,-272.72,-272.78,-6,984,-5,23.9,16.9,-2.8,23.6,17.4,-2.6,5.73,1.93,-5.5,27.8
2015-05-28 01:07:00,0.0,1.90446,0.00031,402.643,0.039,0.6564,0.0028,140.002,45.000,34275.40113,1.91706,405.884,33.240,45.068,45.000,0.00,0.10,-272.71,-272.78,-6,984,-5,23.9,16.8,-2.9,23.6,17.2,-2.7,5.73,1.93,-5.4,27.8
2015-05-28 01:08:00,0.0,1.90446,0.00034,402.669,0.034,0.6541,0.0019,139.998,45.000,34272.96400,1.91694,405.905,33.237,45.068,45.000,0.00,0.09,-272.72,-272.78,-7,984,-5,23.9,16.7,-2.9,23.6,17.2,-2.7,5.73,1.92,-5.4,27.7
2015-05-28 01:09:00,0.0,1.90463,0.00037,402.627,0.032,0.6530,0.0021,139.998,45.000,34272.50846,1.91711,405.853,33.244,45.068,45.000,0.00,0.09,-272.72,-272.78,-6,984,-5,23.9,16.6,-3.0,23.6,17.1,-2.8,5.73,1.92,-5.4,27.7
2015-05-28 01:10:00,0.0,1.90477,0.00035,402.624,0.027,0.6558,0.0034,140.002,45.000,34272.69826,1.91734,405.862,33.250,45.068,45.000,0.00,0.10,-272.72,-272.77,-7,984,-5,23.9,16.8,-2.8,23.6,17.2,-2.8,5.73,1.92,-5.4,27.8
2015-05-28 01:11:00,0.0,1.90448,0.00039,402.647,0.051,0.6586,0.0019,139.999,45.000,34271.58755,1.91714,405.902,33.250,45.068,45.000,0.00,0.09,-272.72,-272.77,-6,984,-5,23.9,16.8,-2.8,23.6,17.3,-2.7,5.73,1.91,-5.4,27.7
2015-05-28 01:12:00,0.0,1.90428,0.00029,402.707,0.102,0.6576,0.0013,140.002,45.000,34275.35263,1.91681,405.960,33.250,45.068,45.000,0.00,0.09,-272.72,-272.78,-6,984,-5,23.9,16.8,-2.8,23.6,17.2,-2.7,5.73,1.92,-5.4,27.7
2015-05-28 01:13:00,0.0,1.90412,0.00030,402.619,0.062,0.6591,0.0024,139.998,45.000,34276.19698,1.91675,405.872,33.250,45.068,45.000,0.00,0.10,-272.72,-272.78,-7,984,-5,23.9,16.8,-2.8,23.6,17.3,-2.7,5.73,1.92,-5.4,27.7
2015-05-28 01:14:00,0.0,1.90453,0.00028,402.638,0.033,0.6574,0.0017,140.001,45.000,34276.16575,1.91708,405.889,33.250,45.068,45.000,0.00,0.10,-272.71,-272.78,-6,984,-5,23.9,16.7,-2.9,23.6,17.3,-2.7,5.73,1.91,-5.4,27.7
2015-05-28 01:15:00,0.0,1.90464,0.00027,402.681,0.032,0.6558,0.0028,140.000,45.000,34274.26740,1.91717,405.920,33.250,45.068,45.000,0.00,0.09,-272.72,-272.78,-7,985,-5,23.9,16.7,-2.8,23.6,17.2,-2.7,5.73,1.92,-5.4,27.7
2015-05-28 01:16:00,0.0,1.90420,0.00032,402.677,0.042,0.6598,0.0012,140.002,45.000,34276.45406,1.91684,405.939,33.252,45.068,45.000,0.00,0.09,-272.71,-272.78,-6,984,-5,23.9,16.8,-2.8,23.6,17.3,-2.7,5.73,1.92,-5.4,27.6
2015-05-28 01:17:00,0.0,1.90428,0.00031,402.641,0.030,0.6630,0.0026,139.997,45.000,34276.68501,1.91696,405.919,33.250,45.068,45.000,0.00,0.09,-272.71,-272.77,-7,985,-5,23.9,16.9,-2.7,23.6,17.3,-2.6,5.73,1.92,-5.4,27.7
2015-05-28 01:18:00,0.0,1.90429,0.00032,402.557,0.053,0.6664,0.0015,140.000,45.000,34275.57514,1.91703,405.854,33.254,45.068,45.000,0.00,0.09,-272.72,-272.78,-7,984,-5,23.9,17.0,-2.7,23.6,17.4,-2.5,5.73,1.93,-5.4,27.6
2015-05-28 01:19:00,0.0,1.90436,0.00038,402.603,0.055,0.6621,0.0026,140.003,45.000,34277.93498,1.91701,405.873,33.251,45.068,45.000,0.00,0.10,-272.72,-272.78,-7,984,-5,23.9,16.9,-2.7,23.6,17.4,-2.6,5.73,1.93,-5.4,27.6
2015-05-28 01:20:00,0.0,1.90459,0.00039,402.684,0.021,0.6577,0.0016,140.003,45.000,34276.02771,1.91717,405.935,33.256,45.068,45.000,0.00,0.10,-272.72,-272.78,-7,984,-5,23.9,16.8,-2.8,23.6,17.2,-2.7,5.73,1.93,-5.4,27.6
2015-05-28 01:21:00,0.0,1.90436,0.00037,402.667,0.031,0.6601,0.0020,139.999,45.000,34275.00186,1.91694,405.928,33.267,45.068,45.000,0.00,0.10,-272.72,-272.78,-6,985,-5,23.9,16.8,-2.8,23.6,17.3,-2.7,5.73,1.94,-5.4,27.7
2015-05-28 01:22:00,0.0,1.90418,0.00030,402.712,0.019,0.6610,0.0021,139.999,45.000,34276.44240,1.91688,405.978,33.270,45.068,45.000,0.00,0.09,-272.72,-272.78,-6,984,-5,23.9,16.8,-2.7,23.6,17.3,-2.6,5.73,1.94,-5.4,27.7
2015-05-28 01:23:00,0.0,1.90439,0.00039,402.724,0.046,0.6648,0.0014,139.997,45.000,34275.22767,1.91710,406.011,33.285,45.068,45.000,0.00,0.10,-272.71,-272.78,-7,985,-5,23.9,17.0,-2.6,23.6,17.4,-2.5,5.73,1.94,-5.4,27.7
2015-05-28 01:24:00,0.0,1.90430,0.00041,402.666,0.054,0.6661,0.0028,140.003,45.000,34277.11763,1.91702,405.962,33.272,45.068,45.000,0.00,0.10,-272.72,-272.77,-7,984,-5,23.9,17.0,-2.7,23.6,17.4,-2.6,5.73,1.94,-5.4,27.7
2015-05-28 01:25:00,0.0,1.90409,0.00034,402.626,0.058,0.6671,0.0028,139.999,45.000,34276.91511,1.91691,405.923,33.259,45.068,45.000,0.00,0.09,-272.73,-272.78,-6,984,-5,23.9,17.0,-2.6,23.6,17.4,-2.6,5.73,1.94,-5.4,27.7
2015-05-28 01:26:00,0.0,1.90437,0.00040,402.643,0.052,0.6640,0.0022,139.993,45.000,34275.28837,1.91703,405.926,33.273,45.068,45.000,0.00,0.09,-272.72,-272.77,-7,984,-5,23.9,17.0,-2.7,23.6,17.4,-2.5,5.73,1.94,-5.4,27.7
2015-05-28 01:27:00,0.0,1.90473,0.00040,402.648,0.073,0.6612,0.0022,139.998,45.000,34276.47557,1.91736,405.916,33.267,45.068,45.000,0.00,0.10,-272.71,-272.77,-6,984,-5,24.0,16.9,-2.7,23.7,17.3,-2.6,5.73,1.94,-5.4,27.7
2015-05-28 01:28:00,0.0,1.90428,0.00038,402.623,0.051,0.6630,0.0013,139.999,45.000,34278.46522,1.91702,405.898,33.270,45.068,45.000,0.00,0.09,-272.72,-272.78,-7,985,-5,23.9,16.9,-2.7,23.6,17.4,-2.6,5.73,1.93,-5.4,27.7
2015-05-28 01:29:00,0.0,1.90399,0.00031,402.644,0.076,0.6692,0.0020,139.994,45.000,34277.39492,1.91679,405.948,33.283,45.068,45.000,0.00,0.09,-272.72,-272.78,-7,984,-5,23.9,17.0,-2.6,23.7,17.4,-2.5,5.73,1.93,-5.4,27.8
2015-05-28 01:30:00,0.0,1.90405,0.00023,402.643,0.046,0.6632,0.0018,140.000,45.000,34279.97619,1.91671,405.924,33.280,45.068,45.000,0.00,0.10,-272.71,-272.77,-7,985,-5,23.9,16.9,-2.7,23.7,17.4,-2.5,5.73,1.92,-5.4,27.8
2015-05-28 01:31:00,0.0,1.90412,0.00036,402.673,0.037,0.6668,0.0023,139.997,45.000,34278.83754,1.91687,405.970,33.275,45.068,45.000,0.00,0.09,-272.71,-272.78,-6,984,-5,23.9,17.0,-2.6,23.7,17.5,-2.5,5.73,1.92,-5.4,27.7
2015-05-28 01:32:00,0.0,1.90419,0.00037,402.684,0.033,0.6666,0.0019,140.000,45.000,34278.35818,1.91695,405.980,33.305,45.068,45.000,0.00,0.09,-272.72,-272.78,-7,984,-5,23.9,17.0,-2.6,23.6,17.5,-2.5,5.73,1.92,-5.4,27.7
2015-05-28 01:33:00,0.0,1.90421,0.00046,402.701,0.034,0.6634,0.0027,140.002,45.000,34281.86169,1.91687,405.981,33.304,45.068,45.000,0.00,0.09,-272.72,-272.77,-7,984,-5,23.9,16.9,-2.7,23.6,17.4,-2.6,5.73,1.91,-5.4,27.6
2015-05-28 01:34:00,0.0,1.90438,0.00044,402.710,0.046,0.6651,0.0031,139.999,45.000,34279.96982,1.91713,405.998,33.311,45.068,45.000,0.00,0.10,-272.72,-272.78,-7,985,-5,23.9,17.0,-2.6,23.7,17.4,-2.5,5.73,1.92,-5.4,27.7
2015-05-28 01:35:00,0.0,1.90395,0.00028,402.681,0.020,0.6713,0.0028,140.002,45.000,34282.91894,1.91683,405.998,33.306,45.068,45.000,0.00,0.10,-272.72,-272.78,-7,984,-5,23.9,17.1,-2.6,23.6,17.6,-2.4,5.73,1.91,-5.4,27.7
2015-05-28 01:36:00,0.0,1.90394,0.00042,402.768,0.158,0.6703,0.0042,140.000,45.000,34283.74218,1.91673,406.074,33.311,45.068,45.000,0.00,0.10,-272.72,-272.78,-6,984,-5,23.9,17.1,-2.6,23.6,17.6,-2.4,5.73,1.91,-5.4,27.8
2015-05-28 01:37:00,0.0,1.90396,0.00036,402.789,0.095,0.6643,0.0019,140.000,45.000,34282.39749,1.91667,406.086,33.312,45.067,45.000,0.00,0.10,-272.71,-272.77,-7,984,-5,23.9,16.9,-2.7,23.7,17.4,-2.5,5.73,1.91,-5.4,27.7
2015-05-28 01:38:00,0.0,1.90400,0.00050,402.697,0.063,0.6648,0.0026,139.997,45.000,34284.12897,1.91677,405.983,33.313,45.068,45.000,0.00,0.09,-272.72,-272.78,-7,984,-5,23.9,16.9,-2.7,23.6,17.4,-2.5,5.73,1.92,-5.4,27.7
2015-05-28 01:39:00,0.0,1.90396,0.00041,402.753,0.068,0.6671,0.0028,139.998,45.000,34283.76733,1.91666,406.046,33.313,45.068,45.000,0.00,0.09,-272.72,-272.78,-7,984,-5,24.0,17.0,-2.6,23.7,17.5,-2.5,5.73,1.92,-5.4,27.7
2015-05-28 01:40:00,0.0,1.90441,0.00041,402.742,0.048,0.6625,0.0023,140.000,45.000,34281.41309,1.91712,406.022,33.313,45.068,45.000,0.00,0.09,-272.71,-272.77,-6,984,-5,23.9,16.9,-2.7,23.7,17.4,-2.5,5.73,1.93,-5.4,27.7
2015-05-28 01:41:00,0.0,1.90413,0.00034,402.719,0.162,0.6668,0.0021,140.000,45.000,34284.17641,1.91688,406.002,33.313,45.068,45.000,0.00,0.09,-272.71,-272.77,-7,985,-5,23.9,17.0,-2.7,23.7,17.4,-2.5,5.73,1.93,-5.4,27.7
2015-05-28 01:42:00,0.0,1.90408,0.00043,402.808,0.177,0.6683,0.0021,139.996,45.000,34281.95728,1.91688,406.127,33.314,45.068,45.000,0.00,0.09,-272.72,-272.78,-7,984,-5,23.9,17.0,-2.6,23.7,17.5,-2.4,5.73,1.94,-5.4,27.7
2015-05-28 01:43:00,0.0,1.90404,0.00039,402.698,0.032,0.6680,0.0012,139.998,45.000,34281.93955,1.91679,406.000,33.315,45.068,45.000,0.00,0.10,-272.72,-272.78,-7,985,-5,23.9,17.0,-2.6,23.7,17.4,-2.5,5.73,1.93,-5.3,27.7
2015-05-28 01:44:00,0.0,1.90415,0.00044,402.670,0.047,0.6692,0.0019,140.001,45.000,34281.81882,1.91692,405.979,33.320,45.068,45.000,0.00,0.09,-272.71,-272.78,-7,984,-5,24.0,17.0,-2.6,23.6,17.5,-2.4,5.73,1.94,-5.4,27.7
2015-05-28 01:45:00,0.0,1.90433,0.00043,402.633,0.056,0.6687,0.0022,140.000,45.000,34280.98181,1.91711,405.942,33.314,45.068,45.000,0.00,0.09,-272.72,-272.78,-7,985,-5,23.9,17.0,-2.6,23.7,17.5,-2.5,5.73,1.94,-5.3,27.7
2015-05-28 01:46:00,0.0,1.90473,0.00034,402.685,0.048,0.6597,0.0025,139.999,45.000,34279.13586,1.91738,405.942,33.315,45.068,45.000,0.00,0.10,-272.72,-272.78,-7,984,-5,23.9,16.8,-2.8,23.7,17.3,-2.6,5.73,1.94,-5.3,27.7